Regional Weather Roundup
Issued by NWS

Home | Current Version | Previous Version | Graphics & Text | Print | Product List | Glossary On
Versions: 1 2 3 4 5 6 7 8 9 10 11 12 13 14 15 16 17 18 19 20 21 22 23 24 25 26 27 28 29 30 31 32 33 34 35 36 37 38 39 40 41 42 43 44 45 46 47 48 49 50
000
ASUS45 KCYS 010210
RWRWY

WYOMING REGIONAL WEATHER ROUNDUP
NATIONAL WEATHER SERVICE CHEYENNE WY
800 PM MDT TUE SEP 30 2014

NOTE:  "FAIR" INDICATES FEW OR NO CLOUDS BELOW 12,000 FEET
WITH NO SIGNIFICANT WEATHER AND/OR OBSTRUCTIONS TO VISIBILITY.

WYZ001-010300-
YELLOWSTONE NATIONAL PARK

CITY           SKY/WX    TMP DP  RH WIND       PRES   REMARKS
LK YELLOWSTONE   N/A     36  34  92 CALM      29.93R
W YELLOWSTONE  NOT AVBL

$$
WYZ002>013-054>058-071-098>099-010300-
NORTHERN WYOMING

CITY           SKY/WX    TMP DP  RH WIND       PRES   REMARKS
JACKSON        CLOUDY    45  39  81 S12       29.91R
CODY           CLOUDY    50  45  81 N7        29.80R
GREYBULL       LGT RAIN  54  47  77 CALM      29.75R
WORLAND        MOCLDY    53  45  74 N6        29.76R
SHERIDAN       CLOUDY    54  45  71 N9        29.74R
BUFFALO        CLOUDY    51  42  71 N8        29.77R
GILLETTE       CLOUDY    52  45  77 W9        29.73R
HULETT         CLOUDY    52  46  82 SW7       29.71
NEWCASTLE      MOCLDY    54  43  66 N12       29.73

$$
WYZ014>020-022>026-101>103-010300-
CENTRAL WYOMING

CITY           SKY/WX    TMP DP  RH WIND       PRES   REMARKS
BIG PINEY      MOCLDY    42  33  70 N9        29.95R
PINEDALE       CLOUDY    43  36  75 W9        29.95R
DUBOIS         MOCLDY    41  36  81 N7        29.88R
LANDER         MOCLDY    56  32  40 W6        29.79R
RIVERTON       MOCLDY    54  36  50 NW15      29.81R
CASPER         MOCLDY    54  37  52 NW7       29.79R
DOUGLAS        MOCLDY    52  42  69 SW8       29.78R

$$
WYZ021-027>030-104>119-010300-
SOUTHERN WYOMING

CITY           SKY/WX    TMP DP  RH WIND       PRES   REMARKS
EVANSTON       CLOUDY    40  38  93 SW9       30.00R WCI  34
KEMMERER       MOCLDY    37  36  93 W7        29.98F WCI  32
FORT BRIDGER     N/A     43  41  95 W12       30.03R
ROCK SPRINGS   LGT RAIN  43  39  86 W20       29.96R
DIXON          CLOUDY    45  43  91 CALM      30.00R
RAWLINS        MOCLDY    44  40  85 W18       29.92R
SARATOGA       DRIZZLE   43  39  87 SW18G35   29.94S
LARAMIE        CLOUDY    46  35  65 SW17G24   29.92R
CHEYENNE       CLOUDY    53  37  54 SW14      29.88R
TORRINGTON     CLOUDY    56  44  64 W7        29.76R
PINE BLUFFS    MOCLDY    54  43  66 W6        29.84R

$$



USA.gov is the U.S. government's official web portal to all federal, state and local government web resources and services.